CW5619 Weather Reports


time (UTC)temp
C
wind
direction
speed
KPH
gust
KPH
rain 1hr
cm
rain 24hr
cm
rain mn
cm
humidity
%
barometer
mb
20260510073903 23 5 0.0 1.6 0.00 0.00 0.00 21 1011.3
20260510073404 23 5 0.0 1.6 0.00 0.00 0.00 21 1011.3
20260510072904 23 5 0.0 1.6 0.00 0.00 0.00 22 1011.5
20260510072404 22 5 0.0 1.6 0.00 0.00 0.00 23 1011.4
20260510071403 23 5 1.6 1.6 0.00 0.00 0.00 25 1011.4
20260510070903 23 5 1.6 1.6 0.00 0.00 0.00 23 1011.4
20260510070403 24 5 0.0 1.6 0.00 0.00 0.00 21 1011.4
20260510065904 25 5 0.0 3.2 0.00 0.00 0.00 19 1011.4
20260510065403 25 0 0.0 3.2 0.00 0.00 0.00 18 1011.3
20260510064903 24 339 1.6 3.2 0.00 0.00 0.00 20 1011.3
20260510064403 24 22 1.6 3.2 0.00 0.00 0.00 21 1011.3
20260510063904 24 39 0.0 3.2 0.00 0.00 0.00 21 1011.3
20260510062903 23 39 3.2 4.8 0.00 0.00 0.00 26 1011.3
20260510062404 23 21 1.6 3.2 0.00 0.00 0.00 28 1011.1
20260510061904 23 21 1.6 1.6 0.00 0.00 0.00 30 1011.2
20260510061403 23 21 0.0 1.6 0.00 0.00 0.00 31 1011.1
20260510060904 23 21 0.0 1.6 0.00 0.00 0.00 28 1011.0
20260510060403 23 21 0.0 3.2 0.00 0.00 0.00 27 1011.0
20260510055905 24 21 1.6 3.2 0.00 0.00 0.00 26 1010.9
20260510055404 23 21 0.0 3.2 0.00 0.00 0.00 25 1010.9
20260510053903 24 21 0.0 1.6 0.00 0.00 0.00 26 1010.7
20260510052903 24 21 1.6 3.2 0.00 0.00 0.00 25 1010.5
20260510052404 25 5 0.0 1.6 0.00 0.00 0.00 25 1010.4
20260510051904 25 5 0.0 1.6 0.00 0.00 0.00 26 1010.4
20260510051403 25 5 0.0 1.6 0.00 0.00 0.00 25 1010.3
20260510050904 25 5 0.0 1.6 0.00 0.00 0.00 26 1010.3
20260510050403 25 5 0.0 1.6 0.00 0.00 0.00 25 1010.3
20260510045903 25 5 0.0 1.6 0.00 0.00 0.00 25 1010.2
20260510045403 26 5 0.0 3.2 0.00 0.00 0.00 24 1010.2
20260510044903 26 5 0.0 3.2 0.00 0.00 0.00 21 1010.1
20260510044403 26 5 1.6 3.2 0.00 0.00 0.00 22 1010.1
20260510043903 26 5 0.0 0.0 0.00 0.00 0.00 21 1010.0
20260510043404 26 5 0.0 0.0 0.00 0.00 0.00 22 1010.0
20260510042904 26 5 0.0 1.6 0.00 0.00 0.00 21 1009.9
20260510042404 27 5 0.0 1.6 0.00 0.00 0.00 19 1009.8
20260510041904 27 5 0.0 1.6 0.00 0.00 0.00 17 1009.7
20260510041403 27 5 0.0 0.0 0.00 0.00 0.00 17 1009.7
20260510040403 28 5 0.0 1.6 0.00 0.00 0.00 17 1009.6
20260510035904 28 5 0.0 0.0 0.00 0.00 0.00 15 1009.5
20260510035404 29 5 0.0 0.0 0.00 0.00 0.00 14 1009.5
20260510034904 29 5 0.0 1.6 0.00 0.00 0.00 13 1009.4
20260510033904 30 19 0.0 3.2 0.00 0.00 0.00 13 1009.2
20260510033403 30 19 0.0 3.2 0.00 0.00 0.00 13 1009.2
20260510032903 30 25 0.0 4.8 0.00 0.00 0.00 12 1009.1
20260510032403 30 25 0.0 4.8 0.00 0.00 0.00 12 1009.1
20260510031403 31 344 0.0 3.2 0.00 0.00 0.00 12 1008.9
20260510030904 31 352 1.6 3.2 0.00 0.00 0.00 12 1008.8
20260510030404 31 354 0.0 3.2 0.00 0.00 0.00 12 1008.8
20260510025903 31 355 1.6 3.2 0.00 0.00 0.00 12 1008.7
20260510024904 31 0 1.6 3.2 0.00 0.00 0.00 11 1008.5
20260510024403 32 1 0.0 3.2 0.00 0.00 0.00 11 1008.4
20260510023403 32 344 0.0 3.2 0.00 0.00 0.00 11 1008.4
20260510022904 32 344 1.6 4.8 0.00 0.00 0.00 10 1008.4
20260510022404 32 313 1.6 4.8 0.00 0.00 0.00 10 1008.3
20260510021903 33 5 3.2 4.8 0.00 0.00 0.00 10 1008.3
20260510021403 33 345 1.6 4.8 0.00 0.00 0.00 10 1008.3
20260510020904 33 319 1.6 9.7 0.00 0.00 0.00 10 1008.1
20260510020404 33 358 3.2 9.7 0.00 0.00 0.00 9 1008.1
20260510015904 33 333 3.2 9.7 0.00 0.00 0.00 9 1008.0
20260510015404 34 316 1.6 4.8 0.00 0.00 0.00 9 1008.1
20260510014903 34 14 1.6 8.0 0.00 0.00 0.00 9 1008.0
20260510014404 34 322 3.2 8.0 0.00 0.00 0.00 9 1008.0
20260510013903 35 339 1.6 4.8 0.00 0.00 0.00 9 1007.9
20260510013403 35 207 1.6 8.0 0.00 0.00 0.00 9 1007.9
20260510012904 35 283 1.6 11.3 0.00 0.00 0.00 9 1008.0
20260510012403 35 313 4.8 11.3 0.00 0.00 0.00 9 1007.9
20260510011403 35 339 1.6 4.8 0.00 0.00 0.00 9 1007.9
20260510010903 35 292 3.2 12.9 0.00 0.00 0.00 9 1007.9
20260510010403 35 327 3.2 12.9 0.00 0.00 0.00 9 1007.8
20260510005903 35 304 4.8 9.7 0.00 0.00 0.00 9 1007.9
20260510005404 35 345 1.6 8.0 0.00 0.00 0.00 9 1007.9
20260510004903 35 336 4.8 9.7 0.00 0.00 0.00 9 1008.0
20260510004404 36 218 3.2 9.7 0.00 0.00 0.00 9 1008.0
20260510003903 35 70 0.0 8.0 0.00 0.00 0.00 9 1008.0
20260510003404 36 199 3.2 8.0 0.00 0.00 0.00 9 1008.0
20260510002904 36 350 3.2 8.0 0.00 0.00 0.00 8 1008.0
20260510002404 36 288 4.8 9.7 0.00 0.00 0.00 9 1008.1
20260510001404 36 216 3.2 14.5 0.00 0.00 0.00 9 1008.1
20260510000904 36 21 3.2 12.9 0.00 0.00 0.00 9 1008.1
20260510000404 36 341 4.8 11.3 0.00 0.00 0.00 8 1008.1
20260509235903 36 231 3.2 11.3 0.00 0.00 0.00 8 1008.2
20260509235404 36 213 3.2 11.3 0.00 0.00 0.00 8 1008.1
20260509234903 36 319 3.2 12.9 0.00 0.00 0.00 9 1008.4
20260509234404 36 357 3.2 12.9 0.00 0.00 0.00 9 1008.4
20260509233903 37 5 6.4 12.9 0.00 0.00 0.00 8 1008.5
20260509233404 37 324 3.2 12.9 0.00 0.00 0.00 8 1008.5
20260509232904 37 231 4.8 12.9 0.00 0.00 0.00 8 1008.5
20260509232404 37 236 4.8 12.9 0.00 0.00 0.00 8 1008.6
20260509231904 37 190 4.8 12.9 0.00 0.00 0.00 8 1008.6
20260509231403 37 52 3.2 19.3 0.00 0.00 0.00 8 1008.6
20260509230903 37 301 8.0 19.3 0.00 0.00 0.00 9 1008.6
20260509230404 37 325 3.2 19.3 0.00 0.00 0.00 8 1008.6
20260509225904 37 248 4.8 14.5 0.00 0.00 0.00 8 1008.7
20260509225404 37 244 3.2 9.7 0.00 0.00 0.00 8 1008.7
20260509224903 37 32 3.2 19.3 0.00 0.00 0.00 9 1008.8
20260509224404 37 48 4.8 19.3 0.00 0.00 0.00 8 1008.8
20260509223903 37 207 3.2 22.5 0.00 0.00 0.00 9 1008.9
20260509222903 38 251 4.8 22.5 0.00 0.00 0.00 8 1009.1
20260509222403 37 211 1.6 9.7 0.00 0.00 0.00 8 1009.1
20260509221904 38 328 3.2 9.7 0.00 0.00 0.00 8 1009.1
20260509221404 38 252 3.2 16.1 0.00 0.00 0.00 8 1009.3
20260509220904 38 39 8.0 19.3 0.00 0.00 0.00 8 1009.4
20260509220404 38 227 6.4 19.3 0.00 0.00 0.00 8 1009.5
20260509215404 37 227 4.8 14.5 0.00 0.00 0.00 9 1009.6
20260509214904 37 44 4.8 11.3 0.00 0.00 0.00 9 1009.6
20260509214403 37 218 4.8 16.1 0.00 0.00 0.00 9 1009.7
20260509213904 37 34 4.8 16.1 0.00 0.00 0.00 9 1009.9
20260509213403 38 233 8.0 19.3 0.00 0.00 0.00 9 1009.9
20260509212904 37 359 3.2 19.3 0.00 0.00 0.00 9 1009.8
20260509212404 37 305 8.0 14.5 0.00 0.00 0.00 9 1010.0
20260509211904 37 242 4.8 14.5 0.00 0.00 0.00 9 1010.0
20260509210903 37 225 8.0 14.5 0.00 0.00 0.00 9 1010.2
20260509210404 37 243 3.2 14.5 0.00 0.00 0.00 9 1010.3
20260509205903 37 211 3.2 11.3 0.00 0.00 0.00 9 1010.4
20260509205403 37 283 3.2 11.3 0.00 0.00 0.00 9 1010.5
20260509204904 37 151 1.6 11.3 0.00 0.00 0.00 9 1010.6
20260509204404 37 21 4.8 11.3 0.00 0.00 0.00 9 1010.6
20260509203903 38 235 3.2 8.0 0.00 0.00 0.00 9 1010.8
20260509203404 37 213 1.6 14.5 0.00 0.00 0.00 9 1010.8
20260509202904 37 228 3.2 14.5 0.00 0.00 0.00 9 1010.9
20260509202404 37 196 3.2 12.9 0.00 0.00 0.00 10 1011.0
20260509201903 37 217 4.8 14.5 0.00 0.00 0.00 9 1011.0
20260509201403 37 228 4.8 14.5 0.00 0.00 0.00 9 1011.1
20260509200904 37 230 4.8 14.5 0.00 0.00 0.00 9 1011.2
20260509200403 37 244 3.2 16.1 0.00 0.00 0.00 9 1011.4
20260509195903 37 247 4.8 19.3 0.00 0.00 0.00 9 1011.3
20260509195404 36 225 8.0 19.3 0.00 0.00 0.00 9 1011.3
20260509194903 36 217 4.8 12.9 0.00 0.00 0.00 10 1011.4
20260509194404 37 265 4.8 14.5 0.00 0.00 0.00 9 1011.5
20260509193904 37 273 4.8 14.5 0.00 0.00 0.00 9 1011.5
20260509193403 36 309 4.8 14.5 0.00 0.00 0.00 10 1011.6
20260509192903 36 218 3.2 14.5 0.00 0.00 0.00 10 1011.7
20260509192403 36 154 3.2 14.5 0.00 0.00 0.00 10 1011.7
20260509191904 36 218 4.8 11.3 0.00 0.00 0.00 10 1011.7
20260509191404 36 263 4.8 12.9 0.00 0.00 0.00 11 1011.8
20260509190904 36 197 3.2 16.1 0.00 0.00 0.00 10 1011.9
20260509190404 36 235 8.0 16.1 0.00 0.00 0.00 10 1012.0
20260509185904 35 352 4.8 9.7 0.00 0.00 0.00 11 1012.0
20260509184903 36 200 3.2 9.7 0.00 0.00 0.00 11 1012.1
20260509184404 35 351 3.2 9.7 0.00 0.00 0.00 11 1012.1
20260509183904 35 248 3.2 9.7 0.00 0.00 0.00 11 1012.2
20260509183404 35 191 1.6 14.5 0.00 0.00 0.00 12 1012.3
20260509182904 35 229 3.2 14.5 0.00 0.00 0.00 12 1012.4
20260509182404 34 287 3.2 9.7 0.00 0.00 0.00 13 1012.5
20260509181903 33 223 1.6 11.3 0.00 0.00 0.00 13 1012.5
20260509181404 34 226 4.8 11.3 0.00 0.00 0.00 12 1012.6
20260509180903 33 245 4.8 8.0 0.00 0.00 0.00 13 1012.7
20260509180403 33 262 1.6 4.8 0.00 0.00 0.00 13 1012.7
20260509175903 33 220 1.6 4.8 0.00 0.00 0.00 12 1012.8
20260509174904 33 234 3.2 8.0 0.00 0.00 0.00 14 1013.0
20260509174403 32 237 1.6 9.7 0.00 0.00 0.00 13 1012.9
20260509173903 33 229 4.8 9.7 0.00 0.00 0.00 13 1012.9
20260509173404 32 239 4.8 9.7 0.00 0.00 0.00 14 1013.0
20260509172904 32 53 1.6 9.7 0.00 0.00 0.00 14 1013.0
20260509172404 32 301 3.2 9.7 0.00 0.00 0.00 14 1013.1
20260509171404 32 274 3.2 4.8 0.00 0.00 0.00 15 1013.2
20260509170904 32 228 1.6 4.8 0.00 0.00 0.00 15 1013.2
20260509170404 32 255 3.2 4.8 0.00 0.00 0.00 15 1013.3